< VanCam Weather - WU Station History
^^
Station Historical Data
Daily Summary for February 13, 2018 Units:  English    Metric   Both
« Previous Day
Next Day »
Daily Weekly Monthly Yearly Custom
  High: Low: Average:
Temperature: 51.4 °F 22.6 °F 33.9 °F
Dew Point: 31.3 °F 20.4 °F 24.9 °F
Humidity: 93% 33% 73%
Wind Speed: 6.9mph 0.0mph 1.4mph
Wind Gust: 6.9mph - -
Wind- - SSE
Pressure: 30.36 in 30.08 in -
Precipitation: 0.00 in    
Historical Graphs
 
 
Tabular Data for February 13, 2018
Time Temperature Dew Point Pressure Wind Wind Speed Wind Gust Humidity Rainfall Rate (Hourly) solar Conditions
00:04 26.0 °F 21.3 °F 30.35 in ENE 1.2 mph   82% 0.00 in WeatherDisplay:10.37 W/m2 CLR
00:09 26.0 °F 21.5 °F 30.35 in Calm     83% 0.00 in WeatherDisplay:10.37 W/m2 CLR
00:14 26.0 °F 21.8 °F 30.35 in ENE 2.3 mph 2.3 mph 84% 0.00 in WeatherDisplay:10.37 W/m2 CLR
00:19 25.8 °F 21.3 °F 30.35 in ENE 2.3 mph 2.3 mph 83% 0.00 in WeatherDisplay:10.37 W/m2 CLR
00:24 25.7 °F 21.5 °F 30.35 in ENE 1.2 mph 1.2 mph 84% 0.00 in WeatherDisplay:10.37 W/m2 CLR
00:29 25.5 °F 21.6 °F 30.35 in Calm     85% 0.00 in WeatherDisplay:10.37 W/m2 CLR
00:34 25.3 °F 21.7 °F 30.35 in Calm     86% 0.00 in WeatherDisplay:10.37 W/m2 CLR
00:39 25.2 °F 21.6 °F 30.35 in Calm     86% 0.00 in WeatherDisplay:10.37 W/m2 CLR
00:44 25.3 °F 22.0 °F 30.36 in ENE 2.3 mph 2.3 mph 87% 0.00 in WeatherDisplay:10.37 W/m2 CLR
00:49 25.4 °F 21.8 °F 30.36 in ENE 1.2 mph 1.2 mph 86% 0.00 in WeatherDisplay:10.37 W/m2 CLR
00:54 25.5 °F 21.9 °F 30.36 in Calm     86% 0.00 in WeatherDisplay:10.37 W/m2 CLR
00:59 25.4 °F 21.8 °F 30.36 in Calm     86% 0.00 in WeatherDisplay:10.37 W/m2 CLR
01:04 25.3 °F 21.7 °F 30.36 in Calm     86% 0.00 in WeatherDisplay:10.37 W/m2 CLR
01:09 25.3 °F 21.7 °F 30.36 in Calm     86% 0.00 in WeatherDisplay:10.37 W/m2 CLR
01:14 25.2 °F 21.6 °F 30.35 in Calm     86% 0.00 in WeatherDisplay:10.37 W/m2 CLR
01:19 25.1 °F 21.8 °F 30.35 in ENE 1.2 mph   87% 0.00 in WeatherDisplay:10.37 W/m2 CLR
01:24 25.0 °F 21.7 °F 30.35 in Calm     87% 0.00 in WeatherDisplay:10.37 W/m2 CLR
01:29 24.9 °F 21.6 °F 30.35 in Calm     87% 0.00 in WeatherDisplay:10.37 W/m2 CLR
01:34 24.8 °F 21.5 °F 30.35 in ENE 1.0 mph 1.0 mph 87% 0.00 in WeatherDisplay:10.37 W/m2 CLR
01:39 24.9 °F 21.6 °F 30.35 in Calm     87% 0.00 in WeatherDisplay:10.37 W/m2 CLR
01:44 25.0 °F 21.7 °F 30.35 in Calm   0.2 mph 87% 0.00 in WeatherDisplay:10.37 W/m2 CLR
01:49 24.8 °F 21.2 °F 30.35 in ENE 1.2 mph   86% 0.00 in WeatherDisplay:10.37 W/m2 CLR
01:54 24.6 °F 21.3 °F 30.35 in ENE 1.2 mph 1.2 mph 87% 0.00 in WeatherDisplay:10.37 W/m2 CLR
01:59 24.4 °F 21.4 °F 30.35 in ENE 2.3 mph 2.3 mph 88% 0.00 in WeatherDisplay:10.37 W/m2 CLR
02:04 24.3 °F 21.3 °F 30.35 in Calm     88% 0.00 in WeatherDisplay:10.37 W/m2 CLR
02:09 24.3 °F 21.3 °F 30.35 in ENE 1.2 mph   88% 0.00 in WeatherDisplay:10.37 W/m2 CLR
02:14 24.3 °F 21.5 °F 30.35 in ENE 2.3 mph 2.3 mph 89% 0.00 in WeatherDisplay:10.37 W/m2 CLR
02:19 24.2 °F 21.2 °F 30.35 in ENE 1.2 mph   88% 0.00 in WeatherDisplay:10.37 W/m2 CLR
02:24 24.2 °F 21.4 °F 30.35 in ENE 1.2 mph   89% 0.00 in WeatherDisplay:10.37 W/m2 CLR
02:29 24.1 °F 21.3 °F 30.35 in Calm     89% 0.00 in WeatherDisplay:10.37 W/m2 CLR
02:34 24.1 °F 21.3 °F 30.35 in ENE 1.2 mph 1.2 mph 89% 0.00 in WeatherDisplay:10.37 W/m2 CLR
02:39 24.0 °F 21.2 °F 30.35 in ENE 1.2 mph   89% 0.00 in WeatherDisplay:10.37 W/m2 CLR
02:44 24.0 °F 21.2 °F 30.35 in ENE 2.3 mph 2.3 mph 89% 0.00 in WeatherDisplay:10.37 W/m2 CLR
02:49 23.9 °F 21.1 °F 30.35 in ENE 2.3 mph 2.3 mph 89% 0.00 in WeatherDisplay:10.37 W/m2 CLR
02:54 23.8 °F 21.0 °F 30.35 in ENE 1.2 mph 1.2 mph 89% 0.00 in WeatherDisplay:10.37 W/m2 CLR
02:59 23.8 °F 21.0 °F 30.35 in Calm     89% 0.00 in WeatherDisplay:10.37 W/m2 CLR
03:04 23.7 °F 20.9 °F 30.34 in ENE 1.2 mph 1.2 mph 89% 0.00 in WeatherDisplay:10.37 W/m2 CLR
03:09 23.6 °F 20.8 °F 30.34 in ENE 2.3 mph 2.3 mph 89% 0.00 in WeatherDisplay:10.37 W/m2 CLR
03:14 23.6 °F 20.8 °F 30.34 in ENE 1.2 mph 1.2 mph 89% 0.00 in WeatherDisplay:10.37 W/m2 CLR
03:19 23.6 °F 21.1 °F 30.34 in ENE 2.3 mph 2.3 mph 90% 0.00 in WeatherDisplay:10.37 W/m2 CLR
03:24 23.7 °F 21.2 °F 30.33 in Calm     90% 0.00 in WeatherDisplay:10.37 W/m2 CLR
03:29 23.7 °F 20.9 °F 30.33 in ENE 1.2 mph 1.2 mph 89% 0.00 in WeatherDisplay:10.37 W/m2 CLR
03:34 23.6 °F 20.8 °F 30.34 in ENE 1.0 mph 1.0 mph 89% 0.00 in WeatherDisplay:10.37 W/m2 CLR
03:39 23.5 °F 21.0 °F 30.34 in ENE 1.2 mph 1.2 mph 90% 0.00 in WeatherDisplay:10.37 W/m2 CLR
03:44 23.5 °F 21.0 °F 30.33 in ENE 2.3 mph 2.3 mph 90% 0.00 in WeatherDisplay:10.37 W/m2 CLR
03:49 23.5 °F 21.0 °F 30.33 in ENE 2.3 mph 2.3 mph 90% 0.00 in WeatherDisplay:10.37 W/m2 CLR
03:54 23.5 °F 20.7 °F 30.34 in ENE 1.2 mph 1.2 mph 89% 0.00 in WeatherDisplay:10.37 W/m2 CLR
03:59 23.5 °F 21.0 °F 30.33 in ENE 1.2 mph 1.2 mph 90% 0.00 in WeatherDisplay:10.37 W/m2 CLR
04:04 23.7 °F 21.2 °F 30.33 in ENE 2.3 mph 2.3 mph 90% 0.00 in WeatherDisplay:10.37 W/m2 CLR
04:09 23.6 °F 20.8 °F 30.33 in ENE 1.2 mph 1.2 mph 89% 0.00 in WeatherDisplay:10.37 W/m2 CLR
04:14 23.5 °F 21.0 °F 30.33 in ENE 1.2 mph 1.2 mph 90% 0.00 in WeatherDisplay:10.37 W/m2 CLR
04:19 23.6 °F 21.1 °F 30.33 in ENE 1.2 mph 1.2 mph 90% 0.00 in WeatherDisplay:10.37 W/m2 CLR
04:24 23.6 °F 21.1 °F 30.33 in ENE 1.2 mph 1.2 mph 90% 0.00 in WeatherDisplay:10.37 W/m2 CLR
04:29 23.7 °F 21.2 °F 30.33 in ENE 1.2 mph 1.2 mph 90% 0.00 in WeatherDisplay:10.37 W/m2 CLR
04:34 23.7 °F 21.2 °F 30.33 in ENE 1.2 mph 1.2 mph 90% 0.00 in WeatherDisplay:10.37 W/m2 CLR
04:35 23.7 °F 21.2 °F 30.33 in Calm     90% 0.00 in WeatherDisplay:10.37 W/m2 CLR
04:40 23.7 °F 21.2 °F 30.33 in ENE 1.2 mph 1.2 mph 90% 0.00 in WeatherDisplay:10.37 W/m2 CLR
04:45 23.7 °F 21.2 °F 30.33 in ENE 1.2 mph 1.2 mph 90% 0.00 in WeatherDisplay:10.37 W/m2 CLR
04:50 23.6 °F 21.1 °F 30.33 in Calm     90% 0.00 in WeatherDisplay:10.37 W/m2 CLR
04:55 23.5 °F 21.0 °F 30.33 in Calm     90% 0.00 in WeatherDisplay:10.37 W/m2 CLR
05:00 23.4 °F 20.9 °F 30.33 in Calm     90% 0.00 in WeatherDisplay:10.37 W/m2 CLR
05:05 23.3 °F 20.8 °F 30.33 in ENE 1.0 mph 1.0 mph 90% 0.00 in WeatherDisplay:10.37 W/m2 CLR
05:10 23.3 °F 20.8 °F 30.32 in ENE 1.2 mph   90% 0.00 in WeatherDisplay:10.37 W/m2 CLR
05:15 23.2 °F 20.7 °F 30.33 in ENE 1.2 mph 1.2 mph 90% 0.00 in WeatherDisplay:10.37 W/m2 CLR
05:20 23.1 °F 20.6 °F 30.33 in Calm     90% 0.00 in WeatherDisplay:10.37 W/m2 CLR
05:25 23.0 °F 20.8 °F 30.33 in ENE 1.2 mph 1.2 mph 91% 0.00 in WeatherDisplay:10.37 W/m2 CLR
05:30 22.9 °F 20.4 °F 30.32 in ENE 1.2 mph 1.2 mph 90% 0.00 in WeatherDisplay:10.37 W/m2 CLR
05:35 22.8 °F 20.6 °F 30.33 in ENE 1.2 mph 1.2 mph 91% 0.00 in WeatherDisplay:10.37 W/m2 CLR
05:40 22.7 °F 20.5 °F 30.33 in Calm     91% 0.00 in WeatherDisplay:10.37 W/m2 CLR
05:45 22.7 °F 20.5 °F 30.33 in Calm     91% 0.00 in WeatherDisplay:10.37 W/m2 CLR
05:50 22.7 °F 20.5 °F 30.33 in Calm     91% 0.00 in WeatherDisplay:10.37 W/m2 CLR
05:55 22.6 °F 20.4 °F 30.33 in Calm     91% 0.00 in WeatherDisplay:10.37 W/m2 CLR
06:00 22.6 °F 20.6 °F 30.32 in ENE 1.2 mph 1.2 mph 92% 0.00 in WeatherDisplay:10.37 W/m2 CLR
06:05 22.7 °F 20.7 °F 30.32 in ENE 1.2 mph 1.2 mph 92% 0.00 in WeatherDisplay:10.37 W/m2 CLR
06:10 22.7 °F 20.7 °F 30.32 in ENE 2.3 mph 2.3 mph 92% 0.00 in WeatherDisplay:10.37 W/m2 CLR
06:15 22.9 °F 20.9 °F 30.32 in ENE 1.2 mph 1.2 mph 92% 0.00 in WeatherDisplay:10.37 W/m2 CLR
06:20 22.9 °F 20.9 °F 30.32 in ENE 1.2 mph 1.2 mph 92% 0.00 in WeatherDisplay:10.37 W/m2 CLR
06:25 22.8 °F 20.8 °F 30.32 in ENE 1.2 mph 1.2 mph 92% 0.00 in WeatherDisplay:10.37 W/m2 CLR
06:30 22.8 °F 20.8 °F 30.32 in Calm     92% 0.00 in WeatherDisplay:10.37 W/m2 CLR
06:35 22.9 °F 20.9 °F 30.32 in ENE 1.2 mph 1.2 mph 92% 0.00 in WeatherDisplay:10.37 W/m2 CLR
06:40 22.8 °F 20.8 °F 30.32 in ENE 1.2 mph   92% 0.00 in WeatherDisplay:10.37 W/m2 CLR
06:45 22.8 °F 20.8 °F 30.32 in ENE 1.2 mph 1.2 mph 92% 0.00 in WeatherDisplay:10.37 W/m2 CLR
06:50 22.7 °F 20.7 °F 30.33 in ENE 1.2 mph 1.2 mph 92% 0.00 in WeatherDisplay:10.37 W/m2 CLR
06:55 22.7 °F 20.7 °F 30.33 in ENE 1.2 mph 1.2 mph 92% 0.00 in WeatherDisplay:10.37 W/m2 CLR
07:00 22.7 °F 20.7 °F 30.33 in ENE 1.2 mph 1.2 mph 92% 0.00 in WeatherDisplay:10.37 W/m2 CLR
07:05 22.6 °F 20.6 °F 30.33 in ENE 1.2 mph 1.2 mph 92% 0.00 in WeatherDisplay:10.37 W/m2 CLR
07:10 22.7 °F 21.0 °F 30.33 in Calm     93% 0.00 in WeatherDisplay:10.37 W/m2 CLR
07:15 22.7 °F 20.7 °F 30.33 in Calm     92% 0.00 in WeatherDisplay:10.37 W/m2 CLR
07:20 22.8 °F 20.8 °F 30.33 in Calm     92% 0.00 in WeatherDisplay:10.37 W/m2 CLR
07:25 22.7 °F 20.7 °F 30.33 in ENE 1.2 mph 1.2 mph 92% 0.00 in WeatherDisplay:10.37 W/m2 CLR
07:30 22.6 °F 20.6 °F 30.33 in ENE 1.2 mph 1.2 mph 92% 0.00 in WeatherDisplay:10.37 W/m2 CLR
07:35 22.6 °F 20.6 °F 30.33 in Calm     92% 0.00 in WeatherDisplay:10.37 W/m2 CLR
07:40 22.6 °F 20.6 °F 30.33 in ENE 1.2 mph 1.2 mph 92% 0.00 in WeatherDisplay:10.37 W/m2 CLR
07:45 22.6 °F 20.9 °F 30.33 in ENE 1.2 mph 1.2 mph 93% 0.00 in WeatherDisplay:10.37 W/m2 CLR
07:50 22.9 °F 21.2 °F 30.33 in ENE 1.2 mph 1.2 mph 93% 0.00 in WeatherDisplay:10.37 W/m2 CLR
07:55 23.1 °F 21.4 °F 30.33 in ENE 1.2 mph 1.2 mph 93% 0.00 in WeatherDisplay:10.37 W/m2 CLR
08:00 23.3 °F 21.6 °F 30.33 in ENE 1.2 mph   93% 0.00 in WeatherDisplay:10.37 W/m2 CLR
08:05 23.5 °F 21.8 °F 30.33 in ENE 1.2 mph 1.2 mph 93% 0.00 in WeatherDisplay:10.37 W/m2 CLR
08:10 23.8 °F 22.1 °F 30.33 in ENE 1.2 mph 1.2 mph 93% 0.00 in WeatherDisplay:10.37 W/m2 CLR
08:15 24.3 °F 22.6 °F 30.33 in ENE 1.2 mph 1.2 mph 93% 0.00 in WeatherDisplay:10.37 W/m2 CLR
08:20 24.8 °F 23.1 °F 30.33 in Calm     93% 0.00 in WeatherDisplay:10.37 W/m2 CLR
08:25 25.6 °F 23.9 °F 30.33 in Calm     93% 0.00 in WeatherDisplay:10.37 W/m2 CLR
08:30 26.3 °F 24.0 °F 30.33 in ENE 1.2 mph 1.2 mph 91% 0.00 in WeatherDisplay:10.37 W/m2 CLR
08:35 27.0 °F 24.5 °F 30.33 in ENE 1.2 mph 1.2 mph 90% 0.00 in WeatherDisplay:10.37 W/m2 CLR
08:40 27.4 °F 24.3 °F 30.33 in ENE 1.2 mph   88% 0.00 in WeatherDisplay:10.37 W/m2 CLR
08:45 27.9 °F 24.8 °F 30.33 in Calm     88% 0.00 in WeatherDisplay:10.37 W/m2 CLR
08:50 28.7 °F 25.3 °F 30.33 in Calm     87% 0.00 in WeatherDisplay:10.37 W/m2 CLR
08:55 29.3 °F 25.4 °F 30.33 in Calm     85% 0.00 in WeatherDisplay:10.37 W/m2 CLR
09:00 29.8 °F 25.8 °F 30.33 in Calm     85% 0.00 in WeatherDisplay:10.37 W/m2 CLR
09:05 30.5 °F 26.0 °F 30.33 in ENE 1.2 mph 1.2 mph 83% 0.00 in WeatherDisplay:10.37 W/m2 CLR
09:10 30.9 °F 26.3 °F 30.33 in Calm     83% 0.00 in WeatherDisplay:10.37 W/m2 CLR
09:15 31.6 °F 26.4 °F 30.33 in Calm     81% 0.00 in WeatherDisplay:10.37 W/m2 CLR
09:20 32.4 °F 26.6 °F 30.33 in ENE 1.0 mph 1.0 mph 79% 0.00 in WeatherDisplay:10.37 W/m2 CLR
09:25 33.5 °F 26.4 °F 30.33 in North 2.3 mph 2.3 mph 75% 0.00 in WeatherDisplay:10.37 W/m2 CLR
09:30 33.9 °F 26.2 °F 30.32 in WNW 2.3 mph 2.3 mph 73% 0.00 in WeatherDisplay:10.37 W/m2 CLR
09:35 34.4 °F 26.6 °F 30.32 in WNW 1.2 mph 1.2 mph 73% 0.00 in WeatherDisplay:10.37 W/m2 CLR
09:40 34.9 °F 26.1 °F 30.32 in South 1.2 mph 1.2 mph 70% 0.00 in WeatherDisplay:10.37 W/m2 CLR
09:45 35.4 °F 25.5 °F 30.32 in SSW 1.2 mph   67% 0.00 in WeatherDisplay:10.37 W/m2 CLR
09:50 35.4 °F 25.5 °F 30.33 in WNW 1.2 mph 1.2 mph 67% 0.00 in WeatherDisplay:10.37 W/m2 CLR
09:55 35.3 °F 26.1 °F 30.33 in West 2.3 mph 2.3 mph 69% 0.00 in WeatherDisplay:10.37 W/m2 CLR
10:00 35.3 °F 25.4 °F 30.33 in WNW 2.3 mph 2.3 mph 67% 0.00 in WeatherDisplay:10.37 W/m2 CLR
10:05 35.3 °F 25.1 °F 30.33 in WNW 2.3 mph 2.3 mph 66% 0.00 in WeatherDisplay:10.37 W/m2 CLR
10:10 35.3 °F 25.4 °F 30.33 in South 3.5 mph 3.5 mph 67% 0.00 in WeatherDisplay:10.37 W/m2 CLR
10:15 35.4 °F 25.9 °F 30.33 in SSW 3.5 mph 3.5 mph 68% 0.00 in WeatherDisplay:10.37 W/m2 CLR
10:20 35.6 °F 25.4 °F 30.32 in WNW 3.5 mph 3.5 mph 66% 0.00 in WeatherDisplay:10.37 W/m2 CLR
10:25 35.7 °F 25.1 °F 30.32 in WSW 3.5 mph 3.5 mph 65% 0.00 in WeatherDisplay:10.37 W/m2 CLR
10:30 36.0 °F 25.4 °F 30.32 in NNW 2.3 mph 2.3 mph 65% 0.00 in WeatherDisplay:10.37 W/m2 CLR
10:35 36.3 °F 25.7 °F 30.31 in NNW 1.2 mph 1.2 mph 65% 0.00 in WeatherDisplay:10.37 W/m2 CLR
10:40 36.9 °F 25.9 °F 30.31 in ENE 1.2 mph 1.2 mph 64% 0.00 in WeatherDisplay:10.37 W/m2 CLR
10:45 37.6 °F 26.1 °F 30.30 in ESE 1.2 mph 1.2 mph 63% 0.00 in WeatherDisplay:10.37 W/m2 CLR
10:50 38.0 °F 26.1 °F 30.30 in South 2.3 mph 2.3 mph 62% 0.00 in WeatherDisplay:10.37 W/m2 CLR
10:55 38.2 °F 25.5 °F 30.30 in ESE 1.2 mph 1.2 mph 60% 0.00 in WeatherDisplay:10.37 W/m2 CLR
11:00 38.3 °F 25.6 °F 30.30 in ESE 1.2 mph 1.2 mph 60% 0.00 in WeatherDisplay:10.37 W/m2 CLR
11:05 38.5 °F 25.0 °F 30.29 in SE 3.5 mph 3.5 mph 58% 0.00 in WeatherDisplay:10.37 W/m2 CLR
11:10 38.7 °F 25.2 °F 30.29 in SE 1.2 mph 1.2 mph 58% 0.00 in WeatherDisplay:10.37 W/m2 CLR
11:15 39.0 °F 25.9 °F 30.29 in SSW 3.5 mph 3.5 mph 59% 0.00 in WeatherDisplay:10.37 W/m2 CLR
11:20 39.3 °F 26.6 °F 30.29 in WSW 3.5 mph 3.5 mph 60% 0.00 in WeatherDisplay:10.37 W/m2 CLR
11:25 39.5 °F 25.9 °F 30.29 in WNW 2.0 mph 2.0 mph 58% 0.00 in WeatherDisplay:10.37 W/m2 CLR
11:30 39.8 °F 26.2 °F 30.29 in SSW 2.3 mph 2.3 mph 58% 0.00 in WeatherDisplay:10.37 W/m2 CLR
11:35 40.0 °F 26.0 °F 30.28 in South 6.9 mph 6.9 mph 57% 0.00 in WeatherDisplay:10.37 W/m2 CLR
11:40 40.2 °F 26.6 °F 30.28 in SSW 3.5 mph 3.5 mph 58% 0.00 in WeatherDisplay:10.37 W/m2 CLR
11:45 40.4 °F 25.9 °F 30.27 in SSE 4.6 mph 4.6 mph 56% 0.00 in WeatherDisplay:10.37 W/m2 CLR
11:50 40.6 °F 25.2 °F 30.28 in NW 4.0 mph 4.0 mph 54% 0.00 in WeatherDisplay:10.37 W/m2 CLR
11:55 41.1 °F 25.3 °F 30.27 in ENE 3.5 mph 3.5 mph 53% 0.00 in WeatherDisplay:10.37 W/m2 CLR
12:00 41.7 °F 26.3 °F 30.27 in WNW 2.3 mph 2.3 mph 54% 0.00 in WeatherDisplay:10.37 W/m2 CLR
12:05 42.2 °F 25.8 °F 30.27 in NNE 3.5 mph 3.5 mph 52% 0.00 in WeatherDisplay:10.37 W/m2 CLR
12:10 42.8 °F 24.9 °F 30.27 in North 3.0 mph 3.0 mph 49% 0.00 in WeatherDisplay:10.37 W/m2 CLR
12:15 43.1 °F 24.2 °F 30.27 in North 2.3 mph 2.3 mph 47% 0.00 in WeatherDisplay:10.37 W/m2 CLR
12:20 43.4 °F 25.5 °F 30.26 in WNW 3.5 mph 3.5 mph 49% 0.00 in WeatherDisplay:10.37 W/m2 CLR
12:25 43.8 °F 24.3 °F 30.26 in NW 3.5 mph 3.5 mph 46% 0.00 in WeatherDisplay:10.37 W/m2 CLR
12:30 44.1 °F 25.6 °F 30.26 in West 4.6 mph 4.6 mph 48% 0.00 in WeatherDisplay:10.37 W/m2 CLR
12:35 44.2 °F 25.2 °F 30.25 in West 3.5 mph 3.5 mph 47% 0.00 in WeatherDisplay:10.37 W/m2 CLR
12:40 44.5 °F 26.0 °F 30.25 in NE 3.0 mph 3.0 mph 48% 0.00 in WeatherDisplay:10.37 W/m2 CLR
12:45 44.8 °F 24.7 °F 30.25 in NW 3.5 mph 3.5 mph 45% 0.00 in WeatherDisplay:10.37 W/m2 CLR
12:50 44.7 °F 25.2 °F 30.24 in NW 2.3 mph 2.3 mph 46% 0.00 in WeatherDisplay:10.37 W/m2 CLR
12:55 44.9 °F 24.3 °F 30.24 in WNW 2.3 mph 2.3 mph 44% 0.00 in WeatherDisplay:10.37 W/m2 CLR
13:00 45.2 °F 25.1 °F 30.23 in SSE 2.3 mph 2.3 mph 45% 0.00 in WeatherDisplay:10.37 W/m2 CLR
13:05 45.7 °F 26.1 °F 30.23 in ESE 2.3 mph   46% 0.00 in WeatherDisplay:10.37 W/m2 CLR
13:10 46.0 °F 26.9 °F 30.23 in WNW 3.5 mph 3.5 mph 47% 0.00 in WeatherDisplay:10.37 W/m2 CLR
13:15 45.7 °F 25.0 °F 30.22 in NW 3.5 mph 3.5 mph 44% 0.00 in WeatherDisplay:10.37 W/m2 CLR
13:20 45.9 °F 27.3 °F 30.22 in SW 3.5 mph 3.5 mph 48% 0.00 in WeatherDisplay:10.37 W/m2 CLR
13:25 46.5 °F 26.3 °F 30.22 in West 3.5 mph 3.5 mph 45% 0.00 in WeatherDisplay:10.37 W/m2 CLR
13:30 46.6 °F 26.4 °F 30.22 in NW 3.5 mph 3.5 mph 45% 0.00 in WeatherDisplay:10.37 W/m2 CLR
13:35 46.5 °F 25.7 °F 30.22 in NW 3.5 mph 3.5 mph 44% 0.00 in WeatherDisplay:10.37 W/m2 CLR
13:41 46.9 °F 26.1 °F 30.21 in SSW 3.5 mph 3.5 mph 44% 0.00 in WeatherDisplay:10.37 W/m2 CLR
13:46 47.2 °F 25.8 °F 30.21 in WSW 1.2 mph   43% 0.00 in WeatherDisplay:10.37 W/m2 CLR
13:51 47.4 °F 25.4 °F 30.21 in South 3.5 mph 3.5 mph 42% 0.00 in WeatherDisplay:10.37 W/m2 CLR
13:56 47.2 °F 26.9 °F 30.20 in NNW 4.0 mph 4.0 mph 45% 0.00 in WeatherDisplay:10.37 W/m2 CLR
14:01 47.2 °F 25.8 °F 30.20 in NW 3.5 mph 3.5 mph 43% 0.00 in WeatherDisplay:10.37 W/m2 CLR
14:06 47.1 °F 26.8 °F 30.20 in NW 3.0 mph 3.2 mph 45% 0.00 in WeatherDisplay:10.37 W/m2 CLR
14:11 47.2 °F 27.5 °F 30.20 in West 3.5 mph 3.5 mph 46% 0.00 in WeatherDisplay:10.37 W/m2 CLR
14:16 47.4 °F 26.0 °F 30.20 in NW 2.3 mph 2.3 mph 43% 0.00 in WeatherDisplay:10.37 W/m2 CLR
14:21 47.4 °F 25.4 °F 30.20 in West 3.5 mph 3.5 mph 42% 0.00 in WeatherDisplay:10.37 W/m2 CLR
14:26 47.4 °F 26.0 °F 30.20 in SSW 2.3 mph 2.3 mph 43% 0.00 in WeatherDisplay:10.37 W/m2 CLR
14:31 47.8 °F 26.4 °F 30.19 in NNW 3.5 mph 3.5 mph 43% 0.00 in WeatherDisplay:10.37 W/m2 CLR
14:36 48.0 °F 26.5 °F 30.19 in SSE 4.6 mph 4.6 mph 43% 0.00 in WeatherDisplay:10.37 W/m2 CLR
14:41 48.4 °F 25.8 °F 30.19 in SW 2.3 mph 2.3 mph 41% 0.00 in WeatherDisplay:10.37 W/m2 CLR
14:46 49.0 °F 25.7 °F 30.19 in South 2.3 mph 2.3 mph 40% 0.00 in WeatherDisplay:10.37 W/m2 CLR
14:51 49.1 °F 26.4 °F 30.18 in SW 2.3 mph 2.3 mph 41% 0.00 in WeatherDisplay:10.37 W/m2 CLR
14:56 49.3 °F 25.4 °F 30.18 in West 2.3 mph 2.3 mph 39% 0.00 in WeatherDisplay:10.37 W/m2 CLR
15:01 49.4 °F 26.7 °F 30.18 in SSW 2.3 mph 2.3 mph 41% 0.00 in WeatherDisplay:10.37 W/m2 CLR
15:06 49.7 °F 25.7 °F 30.18 in SW 2.3 mph 2.3 mph 39% 0.00 in WeatherDisplay:10.37 W/m2 CLR
15:11 49.9 °F 25.9 °F 30.17 in SSW 2.0 mph 2.0 mph 39% 0.00 in WeatherDisplay:10.37 W/m2 CLR
15:16 50.0 °F 24.7 °F 30.17 in SSW 3.5 mph 3.5 mph 37% 0.00 in WeatherDisplay:10.37 W/m2 CLR
15:21 49.9 °F 25.3 °F 30.17 in SSW 1.2 mph 1.2 mph 38% 0.00 in WeatherDisplay:10.37 W/m2 CLR
15:26 50.2 °F 25.5 °F 30.17 in SSW 1.2 mph 1.2 mph 38% 0.00 in WeatherDisplay:10.37 W/m2 CLR
15:31 50.5 °F 27.7 °F 30.16 in SSW 1.2 mph   41% 0.00 in WeatherDisplay:10.37 W/m2 CLR
15:36 50.8 °F 25.4 °F 30.16 in SSW 1.2 mph 1.2 mph 37% 0.00 in WeatherDisplay:10.37 W/m2 CLR
15:41 50.8 °F 26.1 °F 30.16 in Calm     38% 0.00 in WeatherDisplay:10.37 W/m2 CLR
15:46 51.2 °F 25.1 °F 30.16 in Calm     36% 0.00 in WeatherDisplay:10.37 W/m2 CLR
15:51 51.4 °F 23.9 °F 30.16 in WSW 4.6 mph 4.6 mph 34% 0.00 in WeatherDisplay:10.37 W/m2 CLR
15:56 51.0 °F 25.0 °F 30.16 in WSW 2.3 mph 2.3 mph 36% 0.00 in WeatherDisplay:10.37 W/m2 CLR
16:01 50.9 °F 24.9 °F 30.15 in SSW 2.3 mph 2.3 mph 36% 0.00 in WeatherDisplay:10.37 W/m2 CLR
16:06 51.2 °F 25.1 °F 30.15 in SSW 1.2 mph 1.2 mph 36% 0.00 in WeatherDisplay:10.37 W/m2 CLR
16:11 51.1 °F 23.7 °F 30.15 in WNW 2.3 mph 2.3 mph 34% 0.00 in WeatherDisplay:10.37 W/m2 CLR
16:16 51.0 °F 22.9 °F 30.15 in WNW 1.2 mph 1.2 mph 33% 0.00 in WeatherDisplay:10.37 W/m2 CLR
16:21 50.6 °F 22.5 °F 30.14 in SW 2.3 mph 2.3 mph 33% 0.00 in WeatherDisplay:10.37 W/m2 CLR
16:26 49.9 °F 24.0 °F 30.14 in SW 1.2 mph 1.2 mph 36% 0.00 in WeatherDisplay:10.37 W/m2 CLR
16:31 49.6 °F 23.7 °F 30.14 in SW 1.2 mph 1.2 mph 36% 0.00 in WeatherDisplay:10.37 W/m2 CLR
16:36 49.5 °F 25.5 °F 30.14 in SW 2.3 mph 2.3 mph 39% 0.00 in WeatherDisplay:10.37 W/m2 CLR
16:41 49.3 °F 26.6 °F 30.14 in Calm     41% 0.00 in WeatherDisplay:10.37 W/m2 CLR
16:46 48.8 °F 26.7 °F 30.14 in SW 1.2 mph 1.2 mph 42% 0.00 in WeatherDisplay:10.37 W/m2 CLR
16:51 47.9 °F 29.1 °F 30.14 in Calm     48% 0.00 in WeatherDisplay:10.37 W/m2 CLR
16:56 46.8 °F 28.6 °F 30.14 in Calm     49% 0.00 in WeatherDisplay:10.37 W/m2 CLR
17:01 45.5 °F 29.8 °F 30.14 in Calm     54% 0.00 in WeatherDisplay:10.37 W/m2 CLR
17:06 44.4 °F 29.2 °F 30.14 in Calm     55% 0.00 in WeatherDisplay:10.37 W/m2 CLR
17:11 43.4 °F 28.7 °F 30.14 in SW 2.3 mph 2.3 mph 56% 0.00 in WeatherDisplay:10.37 W/m2 CLR
17:16 42.4 °F 28.2 °F 30.13 in SW 1.2 mph 1.2 mph 57% 0.00 in WeatherDisplay:10.37 W/m2 CLR
17:21 41.7 °F 28.4 °F 30.13 in SW 1.2 mph 1.2 mph 59% 0.00 in WeatherDisplay:10.37 W/m2 CLR
17:26 41.1 °F 28.7 °F 30.12 in SW 1.2 mph 1.2 mph 61% 0.00 in WeatherDisplay:10.37 W/m2 CLR
17:31 40.5 °F 28.1 °F 30.12 in Calm     61% 0.00 in WeatherDisplay:10.37 W/m2 CLR
17:36 40.0 °F 28.8 °F 30.12 in Calm     64% 0.00 in WeatherDisplay:10.37 W/m2 CLR
17:41 39.5 °F 27.2 °F 30.12 in SW 2.3 mph 2.3 mph 61% 0.00 in WeatherDisplay:10.37 W/m2 CLR
17:46 39.1 °F 26.4 °F 30.12 in SW 2.3 mph 2.3 mph 60% 0.00 in WeatherDisplay:10.37 W/m2 CLR
17:51 38.8 °F 26.1 °F 30.11 in SW 1.2 mph   60% 0.00 in WeatherDisplay:10.37 W/m2 CLR
17:56 38.5 °F 26.2 °F 30.11 in Calm     61% 0.00 in WeatherDisplay:10.37 W/m2 CLR
18:01 38.1 °F 27.7 °F 30.11 in Calm     66% 0.00 in WeatherDisplay:10.37 W/m2 CLR
18:06 37.5 °F 26.4 °F 30.11 in Calm     64% 0.00 in WeatherDisplay:10.37 W/m2 CLR
18:11 37.1 °F 26.8 °F 30.11 in SW 1.2 mph 1.2 mph 66% 0.00 in WeatherDisplay:10.37 W/m2 CLR
18:16 36.9 °F 27.0 °F 30.11 in SW 1.2 mph 1.2 mph 67% 0.00 in WeatherDisplay:10.37 W/m2 CLR
18:21 36.6 °F 27.4 °F 30.10 in Calm     69% 0.00 in WeatherDisplay:10.37 W/m2 CLR
18:26 36.3 °F 27.8 °F 30.11 in Calm     71% 0.00 in WeatherDisplay:10.37 W/m2 CLR
18:31 36.0 °F 27.5 °F 30.10 in Calm     71% 0.00 in WeatherDisplay:10.37 W/m2 CLR
18:36 35.6 °F 26.4 °F 30.11 in Calm     69% 0.00 in WeatherDisplay:10.37 W/m2 CLR
18:41 35.4 °F 26.6 °F 30.11 in Calm     70% 0.00 in WeatherDisplay:10.37 W/m2 CLR
18:46 35.3 °F 27.2 °F 30.11 in Calm     72% 0.00 in WeatherDisplay:10.37 W/m2 CLR
18:51 35.1 °F 27.0 °F 30.11 in Calm     72% 0.00 in WeatherDisplay:10.37 W/m2 CLR
18:56 34.8 °F 27.0 °F 30.11 in Calm     73% 0.00 in WeatherDisplay:10.37 W/m2 CLR
19:01 34.6 °F 27.5 °F 30.10 in Calm     75% 0.00 in WeatherDisplay:10.37 W/m2 CLR
19:06 34.3 °F 27.2 °F 30.10 in Calm     75% 0.00 in WeatherDisplay:10.37 W/m2 CLR
19:11 34.0 °F 26.9 °F 30.10 in Calm     75% 0.00 in WeatherDisplay:10.37 W/m2 CLR
19:16 33.7 °F 26.9 °F 30.09 in SW 3.5 mph 3.5 mph 76% 0.00 in WeatherDisplay:10.37 W/m2 CLR
19:21 33.3 °F 26.5 °F 30.09 in SW 2.3 mph 2.3 mph 76% 0.00 in WeatherDisplay:10.37 W/m2 CLR
19:26 33.3 °F 26.9 °F 30.09 in SW 2.3 mph 2.3 mph 77% 0.00 in WeatherDisplay:10.37 W/m2 CLR
19:31 33.1 °F 26.7 °F 30.09 in SW 2.3 mph 2.3 mph 77% 0.00 in WeatherDisplay:10.37 W/m2 CLR
19:36 33.0 °F 26.6 °F 30.09 in SW 1.2 mph 1.2 mph 77% 0.00 in WeatherDisplay:10.37 W/m2 CLR
19:41 32.9 °F 26.8 °F 30.09 in Calm     78% 0.00 in WeatherDisplay:10.37 W/m2 CLR
19:46 32.7 °F 27.2 °F 30.09 in Calm     80% 0.00 in WeatherDisplay:10.37 W/m2 CLR
19:51 32.5 °F 27.0 °F 30.09 in Calm     80% 0.00 in WeatherDisplay:10.37 W/m2 CLR
19:56 32.3 °F 27.1 °F 30.09 in SW 1.2 mph 1.2 mph 81% 0.00 in WeatherDisplay:10.37 W/m2 CLR
20:01 32.2 °F 27.0 °F 30.09 in SW 1.2 mph 1.2 mph 81% 0.00 in WeatherDisplay:10.37 W/m2 CLR
20:06 32.2 °F 27.0 °F 30.09 in Calm     81% 0.00 in WeatherDisplay:10.37 W/m2 CLR
20:11 32.3 °F 27.4 °F 30.09 in Calm     82% 0.00 in WeatherDisplay:10.37 W/m2 CLR
20:16 32.3 °F 28.0 °F 30.09 in SW 1.2 mph 1.2 mph 84% 0.00 in WeatherDisplay:10.37 W/m2 CLR
20:21 32.2 °F 27.3 °F 30.09 in Calm     82% 0.00 in WeatherDisplay:10.37 W/m2 CLR
20:26 32.4 °F 27.8 °F 30.09 in SW 1.2 mph 1.2 mph 83% 0.00 in WeatherDisplay:10.37 W/m2 CLR
20:31 32.6 °F 28.0 °F 30.09 in SW 1.2 mph 1.2 mph 83% 0.00 in WeatherDisplay:10.37 W/m2 CLR
20:36 33.0 °F 27.5 °F 30.09 in SW 1.2 mph 1.2 mph 80% 0.00 in WeatherDisplay:10.37 W/m2 CLR
20:41 33.4 °F 28.8 °F 30.09 in SW 1.2 mph 1.2 mph 83% 0.00 in WeatherDisplay:10.37 W/m2 CLR
20:46 33.7 °F 29.1 °F 30.09 in SW 2.3 mph 2.3 mph 83% 0.00 in WeatherDisplay:10.37 W/m2 CLR
20:51 33.9 °F 28.7 °F 30.09 in SW 1.2 mph 1.2 mph 81% 0.00 in WeatherDisplay:10.37 W/m2 CLR
20:56 34.2 °F 28.7 °F 30.09 in Calm     80% 0.00 in WeatherDisplay:10.37 W/m2 CLR
21:01 34.4 °F 29.2 °F 30.09 in SW 2.3 mph 2.3 mph 81% 0.00 in WeatherDisplay:10.37 W/m2 CLR
21:06 34.6 °F 30.0 °F 30.08 in Calm     83% 0.00 in WeatherDisplay:10.37 W/m2 CLR
21:11 34.8 °F 29.0 °F 30.08 in SW 1.2 mph 1.2 mph 79% 0.00 in WeatherDisplay:10.37 W/m2 CLR
21:16 35.0 °F 29.8 °F 30.08 in Calm     81% 0.00 in WeatherDisplay:10.37 W/m2 CLR
21:21 35.1 °F 29.6 °F 30.08 in Calm     80% 0.00 in WeatherDisplay:10.37 W/m2 CLR
21:26 35.2 °F 30.0 °F 30.08 in Calm     81% 0.00 in WeatherDisplay:10.37 W/m2 CLR
21:31 35.2 °F 30.3 °F 30.08 in SW 1.2 mph 1.2 mph 82% 0.00 in WeatherDisplay:10.37 W/m2 CLR
21:36 35.3 °F 30.1 °F 30.08 in SW 1.2 mph 1.2 mph 81% 0.00 in WeatherDisplay:10.37 W/m2 CLR
21:41 35.3 °F 29.7 °F 30.08 in SW 1.2 mph 1.2 mph 80% 0.00 in WeatherDisplay:10.37 W/m2 CLR
21:46 35.4 °F 29.5 °F 30.08 in SW 1.2 mph 1.2 mph 79% 0.00 in WeatherDisplay:10.37 W/m2 CLR
21:51 35.4 °F 29.2 °F 30.09 in Calm     78% 0.00 in WeatherDisplay:10.37 W/m2 CLR
21:56 35.5 °F 29.6 °F 30.09 in SW 1.2 mph 1.2 mph 79% 0.00 in WeatherDisplay:10.37 W/m2 CLR
22:01 35.6 °F 29.7 °F 30.10 in SW 1.2 mph 1.2 mph 79% 0.00 in WeatherDisplay:10.37 W/m2 CLR
22:06 35.7 °F 29.8 °F 30.09 in SSW 2.3 mph 2.3 mph 79% 0.00 in WeatherDisplay:10.37 W/m2 CLR
22:11 35.8 °F 29.3 °F 30.10 in SE 1.2 mph 1.2 mph 77% 0.00 in WeatherDisplay:10.37 W/m2 CLR
22:16 35.9 °F 30.3 °F 30.10 in Calm     80% 0.00 in WeatherDisplay:10.37 W/m2 CLR
22:21 35.9 °F 30.3 °F 30.10 in Calm     80% 0.00 in WeatherDisplay:10.37 W/m2 CLR
22:26 35.9 °F 30.0 °F 30.10 in Calm     79% 0.00 in WeatherDisplay:10.37 W/m2 CLR
22:31 35.8 °F 30.5 °F 30.10 in Calm     81% 0.00 in WeatherDisplay:10.37 W/m2 CLR
22:36 35.8 °F 30.2 °F 30.10 in SE 1.2 mph 1.2 mph 80% 0.00 in WeatherDisplay:10.37 W/m2 CLR
22:41 35.8 °F 30.8 °F 30.10 in Calm     82% 0.00 in WeatherDisplay:10.37 W/m2 CLR
22:46 35.8 °F 30.5 °F 30.09 in SE 2.3 mph 2.3 mph 81% 0.00 in WeatherDisplay:10.37 W/m2 CLR
22:51 35.8 °F 30.2 °F 30.10 in Calm     80% 0.00 in WeatherDisplay:10.37 W/m2 CLR
22:56 35.9 °F 30.3 °F 30.10 in SE 1.2 mph 1.2 mph 80% 0.00 in WeatherDisplay:10.37 W/m2 CLR
23:01 35.9 °F 30.3 °F 30.10 in Calm     80% 0.00 in WeatherDisplay:10.37 W/m2 CLR
23:06 36.0 °F 30.4 °F 30.10 in SE 1.0 mph 1.0 mph 80% 0.00 in WeatherDisplay:10.37 W/m2 CLR
23:11 36.1 °F 30.8 °F 30.10 in SE 1.2 mph 1.2 mph 81% 0.00 in WeatherDisplay:10.37 W/m2 CLR
23:16 36.1 °F 30.5 °F 30.09 in SE 1.2 mph 1.2 mph 80% 0.00 in WeatherDisplay:10.37 W/m2 CLR
23:21 36.1 °F 31.1 °F 30.09 in SE 1.2 mph 1.2 mph 82% 0.00 in WeatherDisplay:10.37 W/m2 CLR
23:26 36.1 °F 31.1 °F 30.09 in Calm     82% 0.00 in WeatherDisplay:10.37 W/m2 CLR
23:31 36.0 °F 31.0 °F 30.09 in SE 1.2 mph 1.2 mph 82% 0.00 in WeatherDisplay:10.37 W/m2 CLR
23:36 36.0 °F 31.0 °F 30.09 in SE 2.3 mph 2.3 mph 82% 0.00 in WeatherDisplay:10.37 W/m2 CLR
23:41 36.0 °F 31.3 °F 30.09 in Calm     83% 0.00 in WeatherDisplay:10.37 W/m2 CLR
23:46 36.0 °F 31.3 °F 30.09 in SE 2.3 mph 2.3 mph 83% 0.00 in WeatherDisplay:10.37 W/m2 CLR
23:51 36.0 °F 30.7 °F 30.09 in SE 2.3 mph 2.3 mph 81% 0.00 in WeatherDisplay:10.37 W/m2 CLR
23:56 36.1 °F 30.8 °F 30.08 in NNE 3.5 mph 3.5 mph 81% 0.00 in WeatherDisplay:10.37 W/m2 CLR
VanCam Weather
Compliments of Weather Underground - 3.75 mb